Regional Weather Roundup
Issued by NWS

Home | Current Version | Previous Version | Text Only | Print | Product List | Glossary On
Versions: 1 2 3 4 5 6 7 8 9 10 11 12 13 14 15 16 17 18 19 20 21 22 23 24 25 26 27 28 29 30 31 32 33 34 35 36 37 38 39 40 41 42 43 44 45 46 47 48 49 50
000
ASUS46 KLOX 040713
RWRCA

SOUTHERN CALIFORNIA WEATHER ROUNDUP
NATIONAL WEATHER SERVICE OXNARD CALIFORNIA
1200 AM PDT SAT JUL 04 2015

NOTE: "FAIR" INDICATES FEW OR NO CLOUDS BELOW 12,000 FEET WITH NO
SIGNIFICANT WEATHER AND/OR OBSTRUCTIONS TO VISIBILITY.

  -  STATIONS PRECEEDED BY AN ASTERISK (*) ARE NOT NWS OR FAA
     STATIONS AND ARE NOT SUBJECT TO NWS AND FAA QUALITY CONTROL.

CAZ041-042-087-040800-
LA AND ORANGE COUNTY COASTAL AREAS


CITY           SKY/WX    TMP DP  RH WIND       PRES   REMARKS
L.A. DOWNTOWN  CLOUDY    64  59  83 CALM      29.89S
L.A. AIRPORT   CLOUDY    62  59  90 W9        29.90S
LONG BEACH     CLEAR     66  60  81 NW8       29.89F

CITY           SKY/WX    TMP DP  RH WIND       PRES   REMARKS
AVALON           N/A     61 N/A N/A SE2         N/A
FULLERTON      CLEAR     67  60  78 CALM      29.88F
*GETTY CENTER    N/A     59  59 100 E2          N/A
HAWTHORNE      CLOUDY    65  59  81 W8        29.90S
*LOS ALAMITOS  FAIR      64  62  93 S2        29.89F
*REDONDO BEACH   N/A     64  60  88 CALM      29.89S
SANTA ANA      CLEAR     66  61  84 SW3       29.89F
STA MONICA APT CLOUDY    57  57 100 VRB3      29.90S
*UCLA            N/A     63  59  88 SE1       29.87S

$$

CAZ547-548-048-040800-
LA COUNTY VALLEYS AND INLAND EMPIRE


CITY           SKY/WX    TMP DP  RH WIND       PRES   REMARKS
BURBANK        CLEAR     66  59  78 SE6       29.89S
VAN NUYS       CLEAR     67  59  75 SE7       29.89R

CITY           SKY/WX    TMP DP  RH WIND       PRES   REMARKS
CORONA AIRPORT MOSUNNY   68  59  73 CALM      29.90S
*CHATSWORTH      N/A     69  58  68 E2        29.86S
CHINO          CLEAR     69  55  60 W8        29.91S
MARCH AFB      CLEAR     68  51  53 W6        29.91F
*NORTHRIDGE      N/A     68  57  68 E2          N/A
ONTARIO        PTCLDY    69  55  60 W5        29.90S
*PASADENA        N/A     66  61  82 CALM        N/A
RIVERSIDE      CLEAR     71  54  54 CALM      29.90S
SAN BERNARDINO NOT AVBL
*WHITEMAN AP   NOT AVBL
*WOODLAND HILL   N/A     68  57  68 NE1         N/A

$$

CAZ054-055-040800-
LA AND SAN BERNARDINO COUNTY MOUNTAINS


CITY           SKY/WX    TMP DP  RH WIND       PRES   REMARKS
*BIG BEAR AIRP MOSUNNY   57  30  35 CALM      30.24F
SANDBERG       CLEAR     75  52  44 N17       30.08F

$$

CAZ028-029-059-060-099-040800-
ANTELOPE VALLEY AND SURROUNDING AREAS


CITY           SKY/WX    TMP DP  RH WIND       PRES   REMARKS
LANCASTER      PTCLDY    80  50  34 SW12      29.90F
PALMDALE       PTCLDY    77  47  34 S8        29.93R

CITY           SKY/WX    TMP DP  RH WIND       PRES   REMARKS
29 PALMS       CLOUDY    92  49  22 S9        29.89F
BARSTOW/DAGGET CLOUDY    90  39  16 W7        29.85F
BISHOP         MOCLDY    76  42  29 N5        29.96S
CHINA LAKE     CLOUDY    90  44  20 S14       29.83F
EDWARDS AFB    MOCLDY    80  48  32 S10       29.88S
MOJAVE         FAIR      84  50  30 W18G28    29.91F
NEEDLES        CLOUDY   100  49  17 S7        29.74S HX  97
VICTORVILLE    PTCLDY    79  45  29 CALM      29.95F

$$

CAZ039-040-040800-
VENTURA AND SANTA BARBARA COUNTY COAST


CITY           SKY/WX    TMP DP  RH WIND       PRES   REMARKS
CAMARILLO      CLOUDY    62  58  86 CALM      29.88S
OXNARD AIRPORT CLOUDY    62  59  90 CALM      29.88S
*POINT MUGU    CLOUDY    64  59  83 NW3       29.89S
SBA APT/GOLETA CLOUDY    63  59  87 E7        29.85S
*SANTA BARBARA   N/A     63  58  82 CALM      29.94S
*VENTURA         N/A     63  59  86 CALM      29.50S

$$

CAZ044-045-040800-
VENTURA COUNTY VALLEYS


CITY           SKY/WX    TMP DP  RH WIND       PRES   REMARKS
*SIMI VALLEY     N/A     65  58  78 CALM      29.82S
*OJAI            N/A     62  56  81 CALM      29.80S
*FILLMORE        N/A     63  56  80 CALM      29.78S

$$

CAZ053-040800-
VENTURA COUNTY MOUNTAINS


CITY           SKY/WX    TMP DP  RH WIND       PRES   REMARKS

$$

CAZ034-035-036-040800-
CENTRAL COAST AND SANTA YNEZ VALLEY


CITY           SKY/WX    TMP DP  RH WIND       PRES   REMARKS
SAN LUIS OBISP CLOUDY    59  57  93 NW9       29.91F
SANTA MARIA    FOG       59  59 100 CALM      29.91F VSB 3/4

CITY           SKY/WX    TMP DP  RH WIND       PRES   REMARKS
*CAL POLY SLO    N/A     59  59 100 W3G9        N/A
*LOMPOC        CLOUDY    59  54  82 W8        29.92F
*PISMO BEACH     N/A     60  59  95 SW2       29.91F
*SANTA YNEZ    FAIR      59  55  88 CALM      29.91F

$$

CAZ037-038-051-040800-
SAN LUIS OBISPO COUNTY INTERIOR AND CUYAMA VALLEY


CITY           SKY/WX    TMP DP  RH WIND       PRES   REMARKS
*CUYAMA          N/A     71  49  46 W2        29.80F
PASO ROBLES    CLEAR     65  54  67 W6        29.90S

$$

CAZ032-033-061-040800-
SOUTHERN DESERTS


CITY           SKY/WX    TMP DP  RH WIND       PRES   REMARKS
BLYTHE         CLOUDY    93  60  33 NE8       29.72R HX  93
IMPERIAL       MOCLDY    90  56  31 W10       29.67S
PALM SPRINGS   MOCLDY    95  53  24 NW9G20    29.72S HX  92
THERMAL        MOCLDY    94  56  27 NW12      29.66S HX  92

$$

ELSEWHERE ACROSS THE WESTERN UNITED STATES AND MEXICO


CITY           SKY/WX    TMP DP  RH WIND       PRES   REMARKS
DENVER, CO     CLEAR     67  54  63 SW10      30.07F
GRAND CANYON,  CLOUDY    63  56  78 CALM      30.23F
HONOLULU, HI   PTCLDY    81  68  65 E12       29.93R
KAHULUI, MAUI  PTCLDY    77  64  65 NE8       29.92R
LAKE TAHOE, CA PTCLDY    62  52  69 S3        30.20S
LAS VEGAS, NV  CLOUDY    97  35  11 S14       29.74S HX  92
MAMMOTH LAKES, FAIR      63  46  55 W9        30.25R
MEXICO CITY, M CLOUDY    59  54  82 W2        30.34S
PHOENIX, AZ    MOCLDY    89  65  44 NW6       29.76S HX  91
PORTLAND, OR   CLEAR     70  54  56 N5        29.88R
RENO, NV       PTCLDY    77  58  51 NE7       30.05S
SALT LAKE CITY MOCLDY    83  47  28 SE7       29.91S
SAN DIEGO, CA  CLOUDY    68  61  78 W5        29.91F
SAN FRANCISCO, PTCLDY    59  57  93 NW12      29.90F
SAN JOSE, CA   PTCLDY    62  59  90 NW7       29.90S
SEATTLE, WA    CLEAR     72  54  53 W3        29.89S
TIJUANA, MEX   CLOUDY    66  59  77 CALM      29.93

$$

STATION/POSITION TIME  TEMP    WIND        PRES    VSBY  WAVE
                       AIR SEA DIR/SP/G                  HT/PER
                 (UTC) (F)     (DEG/KT/KT) (MB)    (MI)  (FT/S)
POINT ARGUELLO B NOT AVBL
WEST SANTA BARBA 0650   59 58  310/ 17/ 19 1011.2F         4/14
POINT CONCEPTION NOT AVBL
EAST SANTA BARBA 0700   62 63  260/ 16/ 19 1010.6F
SANTA MONICA BAY 0650   63 68  270/  8/ 10 1012.2R         4/ 5



USA.gov is the U.S. government's official web portal to all federal, state and local government web resources and services.